Starlink 2090

decayed
NORAD ID: 47677 Int'l Des: 2021-012 Owner: SPXS Country: US Constellation: starlink
LEOCIRCULAR
Group

About Starlink 2090

Description loading...

Altitude History

Altitude vs Time

uPlot chart will show altitude changes over time

Two-Line Element Set

1 47677U 21012BK 25046.34078995 .14807911 12409-4 52845-3 0 9997
2 47677 53.0274 329.6396 0005590 225.2292 232.5317 16.44087482221658
Epoch: Feb 15, 2025 • Age: 7232 hours

Current Status

Position data unavailable
Launch Date Feb 16, 2021
Age 4.8 years
Decay Date Feb 15, 2025
Type internet

Technical Details

Classification Payload
Mass 260.00 kg
Dry Mass 248.00 kg
Total Mass 260.00 kg
Length 0.20 m
Diameter 2.80 m
Span 9.00 m
Shape Box + pan
Manufacturer SPXS
Bus Type Starlink
Phase Status Unknown Transfer Status
Owner/State SPXS/US

Large Constellations

Loading constellations...